Weather History for KRUT - October, 2014

Change the Weather History Date:

Monday, October 6, 2014

  Actual Average Record
Temperature  
Mean Temperature 50 °F -  
Max Temperature 64 °F - 80 °F (1990)
Min Temperature 36 °F - 21 °F (1965)
Degree Days  
Heating Degree Days 15    
Month to date heating degree days 60  
Since 1 July heating degree days 322  
Cooling Degree Days 0    
Month to date cooling degree days 0  
Year to date cooling degree days 270  
Moisture  
Dew Point 38 °F    
Average Humidity 64    
Maximum Humidity 92    
Minimum Humidity 36    
Precipitation  
Precipitation 0.00 in - 1.28 in (1991)
Month to date precipitation 0.20  
Year to date precipitation 23.01  
Sea Level Pressure  
Sea Level Pressure 30.00 in    
Wind  
Wind Speed 10 mph (SE)    
Max Wind Speed 18 mph    
Max Gust Speed 24 mph    
Visibility 10 miles    
Events      
T = Trace of Precipitation, MM = Missing Value Source: NWS Daily Summary

Daily Weather History Graph

Daily Weather History Graph

Search for Another Location

Airport or City:

Trip Planner

Search our weather history database for the weather conditions in past years. The results will help you decide how hot, cold, wet, or windy it might be!

Date:

Astronomy

Oct. 06, 2014 Rise Set
Actual Time 6:55 AM EDT 6:23 PM EDT
Civil Twilight 6:26 AM EDT 6:52 PM EDT
Nautical Twilight 5:53 AM EDT 7:25 PM EDT
Astronomical Twilight 5:19 AM EDT 7:58 PM EDT
Moon 5:21 PM EDT (10/6) 4:34 AM EDT (10/6)
Length of Visible Light 12h 26m
Length of Day
11h 28m
Waxing Gibbous, 95% of the Moon is Illuminated
Oct 6
Waxing Gibbous
Oct 8
Full
Oct 15
Last Quarter
Oct 23
New
Oct 30
First Quarter

Hourly Weather History & Observations

Time (EDT) Temp. Windchill Dew Point Humidity Pressure Visibility Wind Dir Wind Speed Gust Speed Precip Events Conditions
12:15 AM 39.2 °F 32.5 °F 35.6 °F 87% 29.94 in 10.0 mi SE 10.4 mph - N/A   Clear
12:35 AM 39.2 °F 35.9 °F 35.6 °F 87% 29.94 in 10.0 mi SE 4.6 mph - N/A   Clear
12:55 AM 37.4 °F 32.8 °F 33.8 °F 87% 29.95 in 10.0 mi SE 5.8 mph - N/A   Clear
1:15 AM 37.4 °F 30.3 °F 33.8 °F 87% 29.96 in 10.0 mi SE 10.4 mph - N/A   Clear
1:35 AM 37.4 °F 30.3 °F 33.8 °F 87% 29.96 in 10.0 mi ESE 10.4 mph - N/A   Clear
1:55 AM 37.4 °F 31.4 °F 33.8 °F 87% 29.97 in 10.0 mi SSE 8.1 mph - N/A   Clear
2:15 AM 37.4 °F 32.1 °F 33.8 °F 87% 29.96 in 10.0 mi ESE 6.9 mph - N/A   Clear
2:35 AM 37.4 °F 30.3 °F 33.8 °F 87% 29.96 in 10.0 mi ESE 10.4 mph - N/A   Clear
2:55 AM 35.6 °F 30.7 °F 33.8 °F 93% 29.96 in 10.0 mi ESE 5.8 mph - N/A   Clear
3:15 AM 37.4 °F 30.3 °F 33.8 °F 87% 29.96 in 10.0 mi ESE 10.4 mph - N/A   Clear
3:35 AM 37.4 °F 31.4 °F 33.8 °F 87% 29.97 in 10.0 mi SE 8.1 mph - N/A   Mostly Cloudy
3:55 AM 37.4 °F 30.3 °F 33.8 °F 87% 29.97 in 10.0 mi SE 10.4 mph - N/A   Mostly Cloudy
4:15 AM 35.6 °F 28.6 °F 33.8 °F 93% 29.98 in 10.0 mi SE 9.2 mph - N/A   Mostly Cloudy
4:35 AM 35.6 °F 29.2 °F 33.8 °F 93% 29.99 in 10.0 mi SE 8.1 mph - N/A   Scattered Clouds
4:55 AM 35.6 °F 28.6 °F 33.8 °F 93% 29.99 in 10.0 mi SE 9.2 mph - N/A   Clear
5:15 AM 35.6 °F 28.0 °F 33.8 °F 93% 29.99 in 10.0 mi SE 10.4 mph - N/A   Clear
5:35 AM 37.4 °F 30.3 °F 33.8 °F 87% 29.99 in 10.0 mi SE 10.4 mph - N/A   Clear
5:55 AM 37.4 °F 31.4 °F 33.8 °F 87% 29.99 in 10.0 mi SE 8.1 mph - N/A   Clear
6:15 AM 37.4 °F 29.8 °F 33.8 °F 87% 30.00 in 10.0 mi ESE 11.5 mph - N/A   Clear
6:35 AM 35.6 °F 27.1 °F 33.8 °F 93% 30.00 in 10.0 mi ESE 12.7 mph - N/A   Clear
6:55 AM 37.4 °F 32.1 °F 33.8 °F 87% 30.01 in 10.0 mi SSE 6.9 mph - N/A   Clear
7:15 AM 35.6 °F 27.5 °F 32.0 °F 87% 30.01 in 10.0 mi SE 11.5 mph - N/A   Clear
7:35 AM 37.4 °F 29.3 °F 33.8 °F 87% 30.02 in 10.0 mi ESE 12.7 mph - N/A   Clear
7:55 AM 37.4 °F 29.3 °F 33.8 °F 87% 30.02 in 10.0 mi SE 12.7 mph - N/A   Clear
8:15 AM 39.2 °F 33.0 °F 33.8 °F 81% 30.02 in 10.0 mi SE 9.2 mph - N/A   Clear
8:35 AM 42.8 °F 37.5 °F 33.8 °F 70% 30.03 in 10.0 mi SE 9.2 mph - N/A   Clear
8:55 AM 44.6 °F 40.2 °F 35.6 °F 71% 30.03 in 10.0 mi SSE 8.1 mph - N/A   Clear
9:15 AM 46.4 °F 43.5 °F 35.6 °F 66% 30.03 in 10.0 mi South 5.8 mph - N/A   Clear
9:35 AM 46.4 °F - 35.6 °F 66% 30.04 in 10.0 mi Calm Calm - N/A   Clear
9:55 AM 48.2 °F - 33.8 °F 58% 30.04 in 10.0 mi SW 4.6 mph - N/A   Clear
10:15 AM 51.8 °F - 37.4 °F 58% 30.04 in 10.0 mi South 4.6 mph - N/A   Clear
10:35 AM 53.6 °F - 35.6 °F 51% 30.03 in 10.0 mi South 6.9 mph - N/A   Clear
10:55 AM 55.4 °F - 35.6 °F 47% 30.03 in 10.0 mi SSE 9.2 mph - N/A   Clear
11:15 AM 55.4 °F - 35.6 °F 47% 30.03 in 10.0 mi South 6.9 mph - N/A   Clear
11:35 AM 57.2 °F - 37.4 °F 48% 30.02 in 10.0 mi SSE 10.4 mph - N/A   Clear
11:55 AM 59.0 °F - 35.6 °F 42% 30.02 in 10.0 mi South 9.2 mph 17.3 mph N/A   Clear
12:15 PM 60.8 °F - 35.6 °F 39% 30.02 in 10.0 mi South 11.5 mph - N/A   Clear
12:35 PM 60.8 °F - 37.4 °F 42% 30.01 in 10.0 mi SSE 10.4 mph 18.4 mph N/A   Clear
12:55 PM 62.6 °F - 35.6 °F 37% 30.01 in 10.0 mi South 12.7 mph 18.4 mph N/A   Clear
1:15 PM 62.6 °F - 35.6 °F 37% 29.99 in 10.0 mi South 12.7 mph 17.3 mph N/A   Clear
1:35 PM 62.6 °F - 35.6 °F 37% 29.99 in 10.0 mi South 12.7 mph 21.9 mph N/A   Clear
1:55 PM 64.4 °F - 37.4 °F 37% 29.99 in 10.0 mi South 15.0 mph 24.2 mph N/A   Clear
2:15 PM 64.4 °F - 35.6 °F 34% 29.98 in 10.0 mi South 19.6 mph 26.5 mph N/A   Clear
2:35 PM 62.6 °F - 37.4 °F 39% 29.98 in 10.0 mi SSW 10.4 mph 19.6 mph N/A   Mostly Cloudy
2:55 PM 62.6 °F - 37.4 °F 39% 29.99 in 10.0 mi South 13.8 mph 20.7 mph N/A   Overcast
3:15 PM 60.8 °F - 37.4 °F 42% 29.99 in 10.0 mi South 10.4 mph - N/A   Overcast
3:35 PM 60.8 °F - 39.2 °F 45% 29.99 in 10.0 mi South 6.9 mph - N/A   Overcast
3:55 PM 60.8 °F - 41.0 °F 48% 29.99 in 10.0 mi SSE 6.9 mph - N/A   Overcast
4:15 PM 60.8 °F - 42.8 °F 52% 29.98 in 10.0 mi SE 15.0 mph - N/A   Overcast
4:35 PM 62.6 °F - 42.8 °F 48% 29.98 in 10.0 mi SE 15.0 mph 23.0 mph N/A   Mostly Cloudy
4:55 PM 60.8 °F - 42.8 °F 52% 29.98 in 10.0 mi SE 18.4 mph - N/A   Partly Cloudy
5:15 PM 60.8 °F - 42.8 °F 52% 29.98 in 10.0 mi SE 17.3 mph 26.5 mph N/A   Scattered Clouds
5:35 PM 60.8 °F - 42.8 °F 52% 29.99 in 10.0 mi SE 16.1 mph 21.9 mph N/A   Overcast
5:55 PM 60.8 °F - 44.6 °F 55% 29.99 in 10.0 mi SE 16.1 mph - N/A   Mostly Cloudy
6:15 PM 59.0 °F - 44.6 °F 59% 30.00 in 10.0 mi SE 16.1 mph - N/A   Scattered Clouds
6:35 PM 59.0 °F - 44.6 °F 59% 30.00 in 10.0 mi SE 16.1 mph 21.9 mph N/A   Partly Cloudy
6:55 PM 57.2 °F - 44.6 °F 63% 30.01 in 10.0 mi SE 13.8 mph - N/A   Partly Cloudy
7:15 PM 57.2 °F - 44.6 °F 63% 30.01 in 10.0 mi SE 10.4 mph - N/A   Partly Cloudy
7:35 PM 57.2 °F - 44.6 °F 63% 30.01 in 10.0 mi SE 11.5 mph - N/A   Clear
7:55 PM 55.4 °F - 44.6 °F 67% 30.02 in 10.0 mi SE 10.4 mph 17.3 mph N/A   Clear
8:15 PM 55.4 °F - 44.6 °F 67% 30.01 in 10.0 mi SE 12.7 mph 16.1 mph N/A   Clear
8:35 PM 57.2 °F - 44.6 °F 63% 30.03 in 10.0 mi SE 9.2 mph 16.1 mph N/A   Clear
8:55 PM 55.4 °F - 44.6 °F 67% 30.03 in 10.0 mi SE 12.7 mph 18.4 mph N/A   Clear
9:15 PM 55.4 °F - 44.6 °F 67% 30.04 in 10.0 mi SE 9.2 mph - N/A   Clear
9:35 PM 55.4 °F - 44.6 °F 67% 30.05 in 10.0 mi SSE 6.9 mph - N/A   Clear
9:55 PM 55.4 °F - 44.6 °F 67% 30.05 in 10.0 mi SE 8.1 mph - N/A   Clear
10:15 PM 55.4 °F - 44.6 °F 67% 30.05 in 10.0 mi ESE 5.8 mph - N/A   Clear
10:35 PM 55.4 °F - 44.6 °F 67% 30.04 in 10.0 mi SE 9.2 mph - N/A   Clear
10:55 PM 55.4 °F - 44.6 °F 67% 30.04 in 10.0 mi SSE 11.5 mph - N/A   Clear
11:15 PM 55.4 °F - 44.6 °F 67% 30.04 in 10.0 mi SSE 12.7 mph - N/A   Clear
11:35 PM 55.4 °F - 44.6 °F 67% 30.04 in 10.0 mi SSE 11.5 mph 18.4 mph N/A   Clear
11:55 PM 55.4 °F - 44.6 °F 67% 30.04 in 10.0 mi SSE 8.1 mph - N/A   Clear